UAL154 PTKK-PTPN

Flight info

Callsign UAL154
Flight time 1h 4m
Altitude 33000
Route MICNO R584 BIRUQ
Aircraft B738/M-SDE2E3FGHIRWXY/LB1

Departure

Time 2026-04-25 19:23
Airport Chuuk International Airport (PTKK)

Arrival

Time 2026-04-25 20:27
Airport Pohnpei International Airport (PTPN)
Time Latitude Longitude Altitude Speed Heading
2026-04-25 18:55 7.45789 151.84086 12 ft 0 kts 117°
2026-04-25 19:18 7.45829 151.84127 15 ft 243 kts 27°
2026-04-25 19:18 7.45807 151.84116 13 ft 0 kts 27°
2026-04-25 19:19 7.45809 151.84116 13 ft 1 kts 19°
2026-04-25 19:19 7.45811 151.84116 13 ft 2 kts
2026-04-25 19:20 7.45854 151.84077 12 ft 10 kts 311°
2026-04-25 19:20 7.45893 151.84009 11 ft 13 kts 261°
2026-04-25 19:20 7.45823 151.83928 11 ft 18 kts 226°
2026-04-25 19:20 7.45728 151.83830 9 ft 21 kts 225°
2026-04-25 19:21 7.45675 151.83767 8 ft 3 kts 240°
2026-04-25 19:21 7.45628 151.83713 6 ft 0 kts 125°
2026-04-25 19:21 7.45630 151.83722 6 ft 2 kts 73°
2026-04-25 19:22 7.45638 151.83732 7 ft 0 kts 49°
2026-04-25 19:22 7.45760 151.83861 9 ft 66 kts 45°
2026-04-25 19:22 7.47001 151.85204 584 ft 157 kts 53°
2026-04-25 19:23 7.47392 151.86212 1445 ft 167 kts 89°
2026-04-25 19:23 7.46758 151.88765 2723 ft 205 kts 101°
2026-04-25 19:23 7.46437 151.90204 3406 ft 216 kts 99°
2026-04-25 19:24 7.46150 151.91729 4103 ft 227 kts 98°
2026-04-25 19:24 7.45892 151.93342 4854 ft 240 kts 97°
2026-04-25 19:24 7.45445 151.96851 6494 ft 263 kts 95°
2026-04-25 19:25 7.45070 152.00603 8343 ft 274 kts 94°
2026-04-25 19:25 7.44901 152.02521 9255 ft 272 kts 94°
2026-04-25 19:25 7.44752 152.04310 9931 ft 240 kts 94°
2026-04-25 19:26 7.44619 152.05971 10363 ft 250 kts 94°
2026-04-25 19:26 7.44478 152.07805 10540 ft 274 kts 94°
2026-04-25 19:26 7.44327 152.09803 10724 ft 298 kts 94°
2026-04-25 19:26 7.44166 152.11937 11136 ft 310 kts 94°
2026-04-25 19:27 7.44003 152.14124 11743 ft 316 kts 94°
2026-04-25 19:27 7.43947 152.14872 11968 ft 317 kts 94°
2026-04-25 19:27 7.43672 152.18576 13103 ft 322 kts 94°
2026-04-25 19:27 7.43504 152.20840 13754 ft 326 kts 94°
2026-04-25 19:28 7.43335 152.23129 14332 ft 329 kts 94°
2026-04-25 19:28 7.43164 152.25441 14931 ft 332 kts 94°
2026-04-25 19:28 7.42991 152.27769 15544 ft 335 kts 94°
2026-04-25 19:28 7.42817 152.30120 16113 ft 338 kts 94°
2026-04-25 19:29 7.42641 152.32498 16675 ft 342 kts 94°
2026-04-25 19:29 7.42464 152.34898 17274 ft 344 kts 94°
2026-04-25 19:29 7.42292 152.37316 17844 ft 348 kts 94°
2026-04-25 19:29 7.42123 152.39767 18342 ft 352 kts 94°
2026-04-25 19:30 7.42010 152.41397 18668 ft 354 kts 94°
2026-04-25 19:30 7.41840 152.43879 19182 ft 356 kts 94°
2026-04-25 19:30 7.41668 152.46378 19628 ft 360 kts 94°
2026-04-25 19:30 7.41493 152.48910 20096 ft 363 kts 94°
2026-04-25 19:31 7.41317 152.51449 20623 ft 365 kts 94°
2026-04-25 19:31 7.41139 152.54014 21023 ft 370 kts 94°
2026-04-25 19:31 7.40958 152.56617 21430 ft 374 kts 94°
2026-04-25 19:31 7.40776 152.59243 21937 ft 376 kts 94°
2026-04-25 19:32 7.40592 152.61881 22355 ft 380 kts 94°
2026-04-25 19:32 7.40406 152.64551 22777 ft 383 kts 94°
2026-04-25 19:32 7.40218 152.67240 23247 ft 386 kts 94°
2026-04-25 19:32 7.40093 152.69029 23500 ft 388 kts 94°
2026-04-25 19:33 7.39837 152.72688 23928 ft 393 kts 93°
2026-04-25 19:33 7.39646 152.75428 24367 ft 393 kts 93°
2026-04-25 19:33 7.39452 152.78189 24702 ft 396 kts 94°
2026-04-25 19:33 7.39258 152.80965 25049 ft 399 kts 93°
2026-04-25 19:34 7.39062 152.83754 25442 ft 399 kts 94°
2026-04-25 19:34 7.38866 152.86549 25818 ft 401 kts 94°
2026-04-25 19:34 7.38668 152.89359 26208 ft 402 kts 94°
2026-04-25 19:34 7.38470 152.92173 26582 ft 404 kts 94°
2026-04-25 19:35 7.38271 152.95003 26926 ft 405 kts 94°
2026-04-25 19:35 7.38072 152.97817 27497 ft 401 kts 94°
2026-04-25 19:35 7.37875 153.00609 27978 ft 400 kts 94°
2026-04-25 19:35 7.37677 153.03418 28216 ft 405 kts 94°
2026-04-25 19:36 7.37268 153.09202 28348 ft 423 kts 94°
2026-04-25 19:36 7.36845 153.15179 28495 ft 438 kts 94°
2026-04-25 19:37 7.36404 153.21390 28645 ft 450 kts 94°
2026-04-25 19:37 7.35951 153.27764 28807 ft 460 kts 94°
2026-04-25 19:38 7.35721 153.30983 29035 ft 461 kts 94°
2026-04-25 19:38 7.35491 153.34217 29170 ft 465 kts 94°
2026-04-25 19:38 7.35022 153.40773 29294 ft 473 kts 94°
2026-04-25 19:39 7.34546 153.47429 29529 ft 477 kts 94°
2026-04-25 19:39 7.34307 153.50767 29715 ft 478 kts 94°
2026-04-25 19:39 7.34067 153.54110 29910 ft 478 kts 94°
2026-04-25 19:40 7.33828 153.57440 30193 ft 475 kts 94°
2026-04-25 19:40 7.33589 153.60765 30340 ft 477 kts 94°
2026-04-25 19:40 7.33349 153.64101 30517 ft 477 kts 94°
2026-04-25 19:40 7.33109 153.67427 30715 ft 477 kts 94°
2026-04-25 19:41 7.32868 153.70765 30887 ft 477 kts 94°
2026-04-25 19:41 7.32632 153.74046 31142 ft 475 kts 94°
2026-04-25 19:41 7.32389 153.77411 31349 ft 475 kts 94°
2026-04-25 19:41 7.32230 153.79610 31529 ft 474 kts 94°
2026-04-25 19:42 7.31910 153.84026 31836 ft 473 kts 94°
2026-04-25 19:42 7.31670 153.87339 31981 ft 475 kts 94°
2026-04-25 19:42 7.31433 153.90606 32238 ft 473 kts 94°
2026-04-25 19:42 7.31193 153.93910 32428 ft 474 kts 94°
2026-04-25 19:43 7.30952 153.97221 32669 ft 473 kts 94°
2026-04-25 19:43 7.30711 154.00524 32874 ft 473 kts 94°
2026-04-25 19:43 7.30228 154.07152 32878 ft 474 kts 94°
2026-04-25 19:44 7.29747 154.13742 32876 ft 471 kts 94°
2026-04-25 19:44 7.29266 154.20321 32874 ft 470 kts 94°
2026-04-25 19:45 7.28785 154.26875 32873 ft 469 kts 94°
2026-04-25 19:45 7.28307 154.33378 32875 ft 468 kts 94°
2026-04-25 19:46 7.27826 154.39924 32872 ft 469 kts 94°
2026-04-25 19:46 7.27342 154.46477 32882 ft 470 kts 94°
2026-04-25 19:47 7.26856 154.53063 32878 ft 472 kts 94°
2026-04-25 19:47 7.26366 154.59677 32874 ft 474 kts 94°
2026-04-25 19:48 7.25873 154.66312 32873 ft 476 kts 94°
2026-04-25 19:48 7.25379 154.72957 32877 ft 476 kts 94°
2026-04-25 19:49 7.24968 154.78474 32874 ft 475 kts 94°
2026-04-25 19:49 7.24389 154.86235 32873 ft 475 kts 94°
2026-04-25 19:50 7.23646 154.96169 32877 ft 474 kts 94°
2026-04-25 19:51 7.23153 155.02742 32867 ft 474 kts 94°
2026-04-25 19:51 7.22656 155.09358 32874 ft 474 kts 94°
2026-04-25 19:52 7.22158 155.15974 32874 ft 474 kts 94°
2026-04-25 19:52 7.21659 155.22587 32876 ft 473 kts 94°
2026-04-25 19:53 7.21159 155.29200 32881 ft 473 kts 94°
2026-04-25 19:53 7.20658 155.35809 32877 ft 474 kts 94°
2026-04-25 19:54 7.20157 155.42422 32871 ft 474 kts 94°
2026-04-25 19:54 7.19654 155.49032 32875 ft 474 kts 94°
2026-04-25 19:55 7.19150 155.55649 32879 ft 474 kts 94°
2026-04-25 19:55 7.18646 155.62259 32883 ft 474 kts 94°
2026-04-25 19:56 7.18140 155.68872 32882 ft 474 kts 94°
2026-04-25 19:56 7.17635 155.75466 32859 ft 464 kts 94°
2026-04-25 19:56 7.17390 155.78651 32859 ft 449 kts 94°
2026-04-25 19:57 7.17156 155.81692 32851 ft 435 kts 94°
2026-04-25 19:57 7.16927 155.84677 32860 ft 421 kts 94°
2026-04-25 19:57 7.16703 155.87578 32699 ft 412 kts 94°
2026-04-25 19:57 7.16484 155.90435 32448 ft 407 kts 94°
2026-04-25 19:58 7.16265 155.93272 32069 ft 404 kts 94°
2026-04-25 19:58 7.16049 155.96084 31728 ft 401 kts 94°
2026-04-25 19:58 7.15834 155.98875 31375 ft 399 kts 94°
2026-04-25 19:58 7.15619 156.01657 31026 ft 397 kts 94°
2026-04-25 19:59 7.15406 156.04418 30663 ft 395 kts 94°
2026-04-25 19:59 7.15193 156.07171 30296 ft 394 kts 94°
2026-04-25 19:59 7.14981 156.09913 29948 ft 392 kts 95°
2026-04-25 19:59 7.14769 156.12643 29507 ft 390 kts 94°
2026-04-25 20:00 7.14559 156.15358 29127 ft 387 kts 95°
2026-04-25 20:00 7.14488 156.16275 28997 ft 386 kts 95°
2026-04-25 20:00 7.14142 156.20729 28370 ft 382 kts 95°
2026-04-25 20:00 7.13935 156.23387 28001 ft 379 kts 95°
2026-04-25 20:01 7.13527 156.28637 27278 ft 374 kts 94°
2026-04-25 20:01 7.13324 156.31236 26922 ft 371 kts 94°
2026-04-25 20:01 7.13123 156.33818 26575 ft 369 kts 94°
2026-04-25 20:02 7.12923 156.36384 26215 ft 367 kts 94°
2026-04-25 20:02 7.12724 156.38938 25866 ft 365 kts 94°
2026-04-25 20:02 7.12525 156.41478 25521 ft 363 kts 94°
2026-04-25 20:02 7.12328 156.44005 25170 ft 361 kts 94°
2026-04-25 20:03 7.12131 156.46525 24803 ft 361 kts 94°
2026-04-25 20:03 7.11935 156.49031 24474 ft 359 kts 94°
2026-04-25 20:03 7.11739 156.51530 24115 ft 358 kts 94°
2026-04-25 20:03 7.11546 156.54000 23763 ft 357 kts 94°
2026-04-25 20:04 7.11350 156.56492 23417 ft 356 kts 94°
2026-04-25 20:04 7.11156 156.58971 23018 ft 354 kts 94°
2026-04-25 20:04 7.10962 156.61441 22646 ft 352 kts 94°
2026-04-25 20:04 7.10769 156.63893 22295 ft 350 kts 94°
2026-04-25 20:05 7.10578 156.66326 21953 ft 348 kts 94°
2026-04-25 20:05 7.10388 156.68741 21609 ft 345 kts 94°
2026-04-25 20:05 7.10198 156.71143 21280 ft 343 kts 94°
2026-04-25 20:05 7.10011 156.73529 20948 ft 341 kts 94°
2026-04-25 20:06 7.09823 156.75902 20612 ft 339 kts 94°
2026-04-25 20:06 7.09638 156.78257 20286 ft 337 kts 94°
2026-04-25 20:06 7.09453 156.80600 19964 ft 335 kts 94°
2026-04-25 20:06 7.09269 156.82930 19637 ft 333 kts 94°
2026-04-25 20:07 7.09085 156.85251 19313 ft 332 kts 94°
2026-04-25 20:07 7.08903 156.87558 18994 ft 330 kts 94°
2026-04-25 20:07 7.08721 156.89860 18671 ft 329 kts 94°
2026-04-25 20:07 7.08539 156.92152 18335 ft 329 kts 94°
2026-04-25 20:08 7.08358 156.94439 18005 ft 327 kts 94°
2026-04-25 20:08 7.08177 156.96718 17647 ft 325 kts 94°
2026-04-25 20:08 7.07998 156.98980 17308 ft 324 kts 94°
2026-04-25 20:08 7.07819 157.01230 16986 ft 321 kts 94°
2026-04-25 20:09 7.07641 157.03464 16673 ft 319 kts 94°
2026-04-25 20:09 7.07465 157.05682 16355 ft 317 kts 94°
2026-04-25 20:09 7.07290 157.07887 16046 ft 315 kts 94°
2026-04-25 20:09 7.07115 157.10077 15737 ft 313 kts 94°
2026-04-25 20:10 7.06942 157.12253 15425 ft 311 kts 94°
2026-04-25 20:10 7.06770 157.14417 15116 ft 309 kts 94°
2026-04-25 20:10 7.06598 157.16572 14815 ft 308 kts 94°
2026-04-25 20:10 7.06427 157.18710 14511 ft 306 kts 94°
2026-04-25 20:11 7.06260 157.20812 14221 ft 305 kts 94°
2026-04-25 20:11 7.06088 157.22962 13913 ft 304 kts 93°
2026-04-25 20:11 7.05921 157.25048 13607 ft 302 kts 93°
2026-04-25 20:11 7.05753 157.27156 13266 ft 301 kts 93°
2026-04-25 20:12 7.05585 157.29252 12956 ft 300 kts 93°
2026-04-25 20:12 7.05418 157.31336 12647 ft 298 kts 93°
2026-04-25 20:12 7.05253 157.33407 12349 ft 295 kts 93°
2026-04-25 20:12 7.05197 157.34101 12246 ft 295 kts 93°
2026-04-25 20:13 7.04924 157.37504 11748 ft 292 kts 93°
2026-04-25 20:13 7.04761 157.39534 11461 ft 290 kts 93°
2026-04-25 20:13 7.04599 157.41556 11171 ft 289 kts 93°
2026-04-25 20:13 7.04438 157.43565 10878 ft 287 kts 94°
2026-04-25 20:14 7.04277 157.45564 10591 ft 286 kts 93°
2026-04-25 20:14 7.04117 157.47552 10309 ft 284 kts 93°
2026-04-25 20:14 7.03959 157.49526 10091 ft 280 kts 94°
2026-04-25 20:14 7.03803 157.51453 9965 ft 272 kts 93°
2026-04-25 20:15 7.03651 157.53339 9741 ft 270 kts 93°
2026-04-25 20:15 7.03500 157.55217 9444 ft 268 kts 94°
2026-04-25 20:15 7.03350 157.57084 9166 ft 267 kts 93°
2026-04-25 20:15 7.03201 157.58939 8890 ft 265 kts 93°
2026-04-25 20:16 7.03102 157.60162 8713 ft 264 kts 93°
2026-04-25 20:16 7.02904 157.62613 8362 ft 262 kts 93°
2026-04-25 20:16 7.02807 157.63819 8182 ft 261 kts 93°
2026-04-25 20:16 7.02701 157.65139 7986 ft 260 kts 93°
2026-04-25 20:17 7.02651 157.65756 7899 ft 259 kts 93°
2026-04-25 20:17 7.02505 157.67557 7641 ft 258 kts 93°
2026-04-25 20:17 7.02360 157.69350 7382 ft 257 kts 93°
2026-04-25 20:17 7.02195 157.71135 7133 ft 256 kts 95°
2026-04-25 20:18 7.01978 157.72907 6898 ft 255 kts 96°
2026-04-25 20:18 7.01750 157.74675 6642 ft 255 kts 95°
2026-04-25 20:18 7.01522 157.76441 6384 ft 254 kts 96°
2026-04-25 20:18 7.01296 157.78204 6115 ft 253 kts 96°
2026-04-25 20:19 7.01073 157.79959 5852 ft 252 kts 96°
2026-04-25 20:19 7.00852 157.81706 5588 ft 251 kts 96°
2026-04-25 20:19 7.00634 157.83436 5342 ft 249 kts 96°
2026-04-25 20:19 7.00418 157.85159 5090 ft 247 kts 95°
2026-04-25 20:20 7.00203 157.86870 4833 ft 246 kts 95°
2026-04-25 20:20 6.99989 157.88578 4579 ft 245 kts 96°
2026-04-25 20:20 6.99776 157.90276 4321 ft 244 kts 95°
2026-04-25 20:20 6.99564 157.91966 4068 ft 243 kts 95°
2026-04-25 20:21 6.99355 157.93634 3947 ft 237 kts 95°
2026-04-25 20:21 6.99151 157.95257 3820 ft 231 kts 95°
2026-04-25 20:21 6.98953 157.96837 3713 ft 224 kts 95°
2026-04-25 20:21 6.98761 157.98363 3613 ft 216 kts 95°
2026-04-25 20:22 6.98597 157.99840 3520 ft 209 kts 90°
2026-04-25 20:22 6.98584 158.00794 3452 ft 204 kts 88°
2026-04-25 20:22 6.98597 158.02712 3144 ft 205 kts 88°
2026-04-25 20:22 6.98592 158.04121 2933 ft 197 kts 88°
2026-04-25 20:23 6.98584 158.05452 2760 ft 185 kts 88°
2026-04-25 20:23 6.98578 158.06716 2538 ft 177 kts 89°
2026-04-25 20:23 6.98573 158.07912 2297 ft 168 kts 88°
2026-04-25 20:23 6.98567 158.09049 2073 ft 156 kts 88°
2026-04-25 20:24 6.98562 158.10113 1910 ft 153 kts 88°
2026-04-25 20:24 6.98558 158.11169 1731 ft 145 kts 88°
2026-04-25 20:24 6.98553 158.12146 1487 ft 133 kts 88°
2026-04-25 20:24 6.98549 158.13085 1335 ft 137 kts 88°
2026-04-25 20:25 6.98545 158.14056 1151 ft 140 kts 88°
2026-04-25 20:25 6.98540 158.15037 965 ft 138 kts 87°
2026-04-25 20:25 6.98537 158.15986 775 ft 134 kts 88°
2026-04-25 20:25 6.98532 158.17000 622 ft 155 kts 90°
2026-04-25 20:26 6.98526 158.18075 413 ft 148 kts 89°
2026-04-25 20:26 6.98527 158.19074 229 ft 138 kts 89°
2026-04-25 20:26 6.98523 158.20043 70 ft 140 kts 90°
2026-04-25 20:26 6.98516 158.20925 21 ft 100 kts 91°
2026-04-25 20:27 6.98510 158.21399 20 ft 36 kts 90°
2026-04-25 20:27 6.98508 158.21620 21 ft 25 kts 90°
2026-04-25 20:27 6.98491 158.21784 21 ft 22 kts 117°
2026-04-25 20:27 6.98502 158.21865 20 ft 10 kts 352°
2026-04-25 20:28 6.98508 158.21856 20 ft 0 kts 280°
2026-04-25 20:28 6.98508 158.21854 20 ft 0 kts 272°
2026-04-25 20:28 6.98509 158.21846 20 ft 3 kts 271°
2026-04-25 20:28 6.98510 158.21795 20 ft 12 kts 271°
2026-04-25 20:29 6.98510 158.21683 20 ft 20 kts 270°
2026-04-25 20:29 6.98510 158.21523 21 ft 26 kts 270°
2026-04-25 20:29 6.98509 158.21314 20 ft 33 kts 269°
2026-04-25 20:29 6.98510 158.21067 21 ft 38 kts 270°
2026-04-25 20:30 6.98511 158.20789 20 ft 43 kts 270°
2026-04-25 20:30 6.98511 158.20506 21 ft 29 kts 270°
2026-04-25 20:30 6.98508 158.20388 20 ft 9 kts 256°
2026-04-25 20:30 6.98457 158.20357 19 ft 10 kts 184°
2026-04-25 20:31 6.98386 158.20356 17 ft 10 kts 180°
2026-04-25 20:31 6.98315 158.20357 17 ft 10 kts 178°
2026-04-25 20:31 6.98254 158.20384 17 ft 10 kts 141°
2026-04-25 20:31 6.98207 158.20393 17 ft 2 kts 180°
2026-04-25 20:32 6.98190 158.20393 17 ft 2 kts 179°